Location: Bucquoy
(50.1391°N, 2.7097°E)
Time: 22:22:36
(UTC+00:00)

USA 215 - Pass Details

Date: 06 May 2021
Orbit: 1100 x 1107 km, 123.0° (Epoch: 14 June)

Event Time Altitude Azimuth Distance (km) Brightness Sun altitude
Exits shadow 00:10:10 40° 213° (SSW) 1,564 3.6 -23.1°
Maximum altitude 00:10:46 41° 226° (SW) 1,544 3.6 -23.1°
Drops below altitude 10° 00:16:53 10° 295° (WNW) 2,964 5.7 -23.0°
Sets 00:19:34 0° 303° (WNW) 3,925 6.5 -22.9°
